Regional Weather Roundup
Issued by NWS

Home | Current Version | Previous Version | Graphics & Text | Print | Product List | Glossary Off
Versions: 1 2 3 4 5 6 7 8 9 10 11 12 13 14 15 16 17 18 19 20 21 22 23 24 25 26 27 28 29 30 31 32 33 34 35 36 37 38 39 40 41 42 43 44 45 46 47 48 49 50

411
ASUS43 KMKX 210020
RWRWI

WISCONSIN REGIONAL WEATHER ROUNDUP
NATIONAL WEATHER SERVICE MILWAUKEE/SULLIVAN WI
700 PM CDT SUN MAY 20 2018

NOTE: "FAIR" INDICATES FEW OR NO CLOUDS BELOW 12,000 FEET WITH NO
SIGNIFICANT WEATHER AND/OR OBSTRUCTIONS TO VISIBILITY.

WIZ001-002-006>008-014>016-023>028-210100-
NORTHWEST WISCONSIN

CITY           SKY/WX    TMP DP  RH WIND       PRES   REMARKS
SUPERIOR ARPT  FAIR      68  31  25 E5        30.17F
6HR MIN TEMP:  61; 6HR MAX TEMP:  69;

ASHLAND        FAIR      66  35  31 N5        30.19S
6HR MIN TEMP:  61; 6HR MAX TEMP:  68;

HAYWARD        FAIR      70  34  26 N12       30.16F
6HR MIN TEMP:  68; 6HR MAX TEMP:  73;

SIREN          FAIR      72  24  16 SE5       30.15S
6HR MIN TEMP:  65; 6HR MAX TEMP:  73;

CUMBERLAND     FAIR      68  27  21 NE8       30.15F
RICE LAKE      FAIR      71  20  15 E8        30.16F
6HR MIN TEMP:  64; 6HR MAX TEMP:  73;

CHETEK         FAIR      70  29  22 E3        30.15F
6HR MIN TEMP:  63; 6HR MAX TEMP:  71;

LADYSMITH      FAIR      70  26  19 E6        30.17F
6HR MIN TEMP:  64; 6HR MAX TEMP:  72;

EAU CLAIRE     FAIR      69  31  24 E9        30.13F
6HR MIN TEMP:  63; 6HR MAX TEMP:  71;

MENOMONIE      FAIR      70  27  20 E10       30.14F
6HR MIN TEMP:  64; 6HR MAX TEMP:  71;

NEW RICHMOND   FAIR      69  26  20 E6        30.15S
6HR MIN TEMP:  64; 6HR MAX TEMP:  71;

OSCEOLA        FAIR      71  25  17 E7        30.17S
6HR MIN TEMP:  65; 6HR MAX TEMP:  73;

$$

WIZ003>005-009-010-017-018-210100-
NORTH CENTRAL WISCONSIN

CITY           SKY/WX    TMP DP  RH WIND       PRES   REMARKS
MANITOWISH WTR FAIR      67  29  24 CALM      30.17F
6HR MIN TEMP:  62; 6HR MAX TEMP:  69;

ARBOR VITAE    FAIR      70  27  20 SE6       30.17S
6HR MIN TEMP:  62; 6HR MAX TEMP:  72;

WOODRUFF       FAIR      70  27  20 SE6       30.17S
6HR MIN TEMP:  62; 6HR MAX TEMP:  72;

RHINELANDER    FAIR      69  26  20 E6        30.18F
6HR MIN TEMP:  63; 6HR MAX TEMP:  71;

EAGLE RIVER    FAIR      68  21  17 NE3       30.18S
6HR MIN TEMP:  63; 6HR MAX TEMP:  69;

LAND O LAKES   FAIR      69  23  18 CALM      30.19S
6HR MIN TEMP:  63; 6HR MAX TEMP:  71;

PHILLIPS       FAIR      69  27  21 E5        30.16F
6HR MIN TEMP:  61; 6HR MAX TEMP:  69;

TOMAHAWK       FAIR      67  23  18 CALM      30.17F
6HR MIN TEMP:  61; 6HR MAX TEMP:  69;

MEDFORD        FAIR      65  28  24 SE3       30.16S
6HR MIN TEMP:  60; 6HR MAX TEMP:  68;

MERRILL        FAIR      69  29  23 SE5       30.17S
6HR MIN TEMP:  62; 6HR MAX TEMP:  70;

$$

WIZ029-030-035-036-043>047-210100-
CENTRAL WISCONSIN

CITY           SKY/WX    TMP DP  RH WIND       PRES   REMARKS
WAUSAU         FAIR      68  25  19 NE6       30.14F
6HR MIN TEMP:  62; 6HR MAX TEMP:  70;

MOSINEE        MOSUNNY   64  30  27 E6        30.17F
MARSHFIELD     FAIR      67  31  26 E6        30.15S
6HR MIN TEMP:  63; 6HR MAX TEMP:  70;

STEVENS POINT  NOT AVBL
WAUPACA        FAIR      66  32  28 E7        30.18S
6HR MIN TEMP:  64; 6HR MAX TEMP:  71;

WAUTOMA        FAIR      63  33  32 E10       30.18R
6HR MIN TEMP:  57; 6HR MAX TEMP:  65;

WISC RAPIDS    FAIR      67  34  29 E7        30.17S
6HR MIN TEMP:  63; 6HR MAX TEMP:  72;

CAMP DOUGLAS   CLOUDY    61  47  62 SE6       30.15F
6HR MIN TEMP:  55; 6HR MAX TEMP:  61;

$$

WIZ011>013-019>022-031-037>040-048>050-210100-
NORTHEAST WISCONSIN

CITY           SKY/WX    TMP DP  RH WIND       PRES   REMARKS
ANTIGO         FAIR      64  33  30 SE6       30.18S
6HR MIN TEMP:  60; 6HR MAX TEMP:  67;

SHAWANO        FAIR      64  32  30 SE8       30.18S
6HR MIN TEMP:  63; 6HR MAX TEMP:  69;

OCONTO         FAIR      59  32  36 SE6       30.19F
6HR MIN TEMP:  56; 6HR MAX TEMP:  61;

STURGEON BAY   FAIR      57  25  29 SE6       30.20F
6HR MIN TEMP:  52; 6HR MAX TEMP:  59;

GREEN BAY      FAIR      61  39  44 NE8       30.19F
6HR MIN TEMP:  57; 6HR MAX TEMP:  63;

MANITOWOC      FAIR      54  25  32 NE7       30.20F
6HR MIN TEMP:  53; 6HR MAX TEMP:  57;

APPLETON       MOSUNNY   61  10  13 E13       30.17F
CLINTONVILLE   FAIR      63  28  26 SE9       30.18S
6HR MIN TEMP:  62; 6HR MAX TEMP:  68;

OSHKOSH        FAIR      62  41  46 NE13      30.18S
6HR MIN TEMP:  55; 6HR MAX TEMP:  63;

$$

WIZ032>034-041-042-053>061-210100-
SOUTHWEST WISCONSIN

CITY           SKY/WX    TMP DP  RH WIND       PRES   REMARKS
LA CROSSE      FAIR      64  49  57 E5        30.14F
6HR MIN TEMP:  53; 6HR MAX TEMP:  64;

SPARTA         CLOUDY    62  49  63 E7        30.16S
6HR MIN TEMP:  53; 6HR MAX TEMP:  63;

VIROQUA        CLOUDY    58  52  81 E7        30.16S
6HR MIN TEMP:  50; 6HR MAX TEMP:  58;

BOSCOBEL       CLOUDY    60  52  74 E5        30.15S
6HR MIN TEMP:  55; 6HR MAX TEMP:  61;

PRAIRIE DU CHI CLOUDY    58  50  76 E7        30.14S
6HR MIN TEMP:  53; 6HR MAX TEMP:  58;

PLATTEVILLE    CLOUDY    57  56  94 E10       30.15S
6HR MIN TEMP:  52; 6HR MAX TEMP:  57;

$$

WIZ056-057-062-063-064-067-068-210100-
SOUTH CENTRAL WISCONSIN

CITY           SKY/WX    TMP DP  RH WIND       PRES   REMARKS
REEDSBURG      CLOUDY    59  49  68 E6        30.16S
6HR MIN TEMP:  51; 6HR MAX TEMP:  60;

BARABOO/DELLS  FAIR      60  49  66 NE3       30.16F
6HR MIN TEMP:  51; 6HR MAX TEMP:  60;

LONE ROCK      FAIR      61  53  75 E6        30.15F
6HR MIN TEMP:  54; 6HR MAX TEMP:  61;

MINERAL POINT  CLOUDY    59  54  82 E7        30.15R
MADISON        PTSUNNY   60  51  72 E8        30.15F
6HR MIN TEMP:  52; 6HR MAX TEMP:  60;

MIDDLETON      FAIR      61  52  72 E6        30.16S
6HR MIN TEMP:  53; 6HR MAX TEMP:  61;

WATERTOWN      FAIR      58  49  72 E6        30.15F
6HR MIN TEMP:  50; 6HR MAX TEMP:  60; 6HR PCP:  0.01;

MONROE         CLOUDY    55  52  88 NE10      30.15R
JANESVILLE     CLOUDY    59  48  67 E13       30.15F
$$

WIZ051-052-058>065-066-070>072-210100-
SOUTHEAST WISCONSIN

CITY           SKY/WX    TMP DP  RH WIND       PRES   REMARKS
MILWAUKEE      FAIR      48  40  73 N12       30.18F
6HR MIN TEMP:  45; 6HR MAX TEMP:  49;

WAUKESHA       MOSUNNY   52  39  62 NE12      30.19F
MILWAUKEE/TIMM SUNNY     52  34  50 NE10      30.21F
RACINE         CLOUDY    47  40  76 N8        30.20F
6HR MIN TEMP:  44; 6HR MAX TEMP:  48;

BURLINGTON     CLOUDY    52  40  63 NE9       30.17F
6HR MIN TEMP:  48; 6HR MAX TEMP:  54;

KENOSHA        CLOUDY    50  41  71 NE9       30.18S
6HR MIN TEMP:  47; 6HR MAX TEMP:  54;

FOND DU LAC    FAIR      60  46  59 E10       30.17S
6HR MIN TEMP:  53; 6HR MAX TEMP:  63;

SHEBOYGAN      FAIR      51  37  58 NE9       30.20S
6HR MIN TEMP:  49; 6HR MAX TEMP:  55;

WEST BEND      FAIR      54  36  50 E7        30.19R
JUNEAU         FAIR      60  47  63 E7        30.17S
6HR MIN TEMP:  51; 6HR MAX TEMP:  62;

$$

LSZ147-162-210100-
LAKE SUPERIOR

STATION/POSITION TIME  TEMP    WIND        PRES    WAVE
                       AIR SEA DIR/SP/G            HT/PER
                 (UTC) (F)     (DEG/KT/KT) (MB)    (FT/S)
W MID LAKE BUOY  2350   43 36     CALM     1022.8F   0
DEVILS ISLAND    0000   52      60/  1/  1 1022.4F
SAXON HARBOR     2340   60     300/  1/  2 1021.7F
$$

LMZ867-665-643>646-210100-
LAKE MICHIGAN

STATION/POSITION TIME  TEMP    WIND        PRES    WAVE




USA.gov is the U.S. government's official web portal to all federal, state and local government web resources and services.